[[{"header":{"parameterUnit":"m.s-1","parameterCategory":1,"la1":30.2991,"la2":30.254,"lo1":-89.0895,"lo2":-89.0444,"dy":0.0017,"dx":0.0017,"nx":28,"ny":28,"refTime":"2025-01-12T09:00:00:Z","depth":0,"parameterNumber":2,"parameterNumberName":"U-component_of_WINDS"},"data":[0,0,0,0,0,0,0,0,0,0,0,0,0,0,0,0,0,0,0,0,0,0,0,0,0,0,0,0,0,0,0,0,0,0,0,0,0,0,0,0,0,0,0,0,0,0,0,0,0,0,0,0,0,0,0,0,0,0,-4.8355,-4.8357,0,-4.8504,-4.8506,-4.8507,-4.8438,-4.8434,-4.8431,-4.8427,-4.8582,-4.8589,-4.8597,0,0,0,0,0,0,0,0,0,0,0,0,0,-4.8012,-4.8019,-4.8355,-4.8357,-4.8359,-4.8504,-4.8506,-4.8508,-4.8439,-4.8434,-4.843,-4.8425,-4.8579,-4.8588,-4.8598,0,0,0,0,0,0,0,0,0,0,0,0,0,-4.8161,-4.8021,-4.8355,-4.8342,-4.8342,-4.8503,-4.8506,-4.8508,-4.844,-4.8434,-4.8428,-4.8423,-4.8576,-4.8588,-4.8599,-4.8782,0,0,-4.8634,-4.8639,0,0,0,0,0,0,0,0,-4.8153,-4.8174,-4.8342,-4.8343,-4.8343,-4.8447,-4.8441,-4.86,-4.8441,-4.8403,-4.8427,-4.842,-4.8542,-4.8556,-4.8596,-4.8789,-4.8796,-4.8635,-4.8642,-4.8647,-4.865,0,0,0,0,0,0,0,-4.8143,-4.8167,-4.8414,-4.8344,-4.8345,-4.8329,-4.8344,-4.8471,-4.8502,-4.8406,-4.8401,-4.8419,-4.8541,-4.8585,-4.8599,-4.8798,-4.8634,-4.8645,-4.8652,-4.8656,-4.9148,-4.9154,0,0,0,0,0,0,-4.8132,-4.8159,-4.8409,-4.8418,-4.8232,-4.834,-4.8356,-4.8419,-4.85,-4.8507,-4.8424,-4.8416,-4.8568,-4.8586,-4.8604,-4.8822,-4.8647,-4.8657,-4.8664,-4.9142,-4.915,-4.9156,0,0,0,0,0,0,-4.8125,-4.8155,-4.8403,-4.8287,-4.8318,-4.8351,-4.8423,-4.8425,-4.8469,-4.8514,-4.852,-4.8463,-4.8565,-4.8588,-4.8738,-4.8827,-4.8662,-4.8673,-4.9135,-4.9144,-4.9153,-4.9262,0,0,0,0,0,0,-4.8116,-4.8153,-4.8223,-4.829,-4.8324,-4.8534,-4.8428,-4.8432,-4.8489,-4.8479,-4.8552,-4.8559,-4.8562,-4.8721,-4.8749,-4.884,-4.8682,-4.9127,-4.9139,-4.915,-4.925,-4.9273,-4.9293,0,0,0,0,0,-4.8104,-4.8248,-4.8227,-4.8257,-4.8412,-4.8539,-4.8559,-4.8559,-4.8496,-4.8566,-4.8595,-4.8557,-4.8813,-4.8737,-4.8768,-4.8863,-4.9121,-4.9136,-4.9149,-4.924,-4.9269,-4.9293,0,0,0,0,0,0,-4.8192,-4.8257,-4.8234,-4.8404,-4.8467,-4.8527,-4.8616,-4.8589,-4.8671,-4.8659,-4.8655,-4.8673,-4.8827,-4.8861,-4.8775,-4.9044,-4.8958,-4.8979,-4.9016,-4.9044,-4.9065,-4.9053,-4.8691,0,0,0,0,0,-4.8231,-4.8329,-4.8381,-4.8526,-4.8559,-4.8582,-4.8638,-4.8632,-4.8697,-4.8723,-4.8763,-4.8828,-4.8923,-4.8986,-4.9076,-4.9255,-4.927,-4.9336,-4.9358,-4.9375,-4.9393,-4.9489,-4.9518,-4.9202,-4.9202,-4.9202,0,0,-4.8313,-4.8361,-4.8423,-4.8545,-4.8593,-4.8694,-4.8605,-4.8716,-4.8791,-4.874,-4.8883,-4.8915,-4.8988,-4.9153,-4.9227,-4.9185,-4.9484,-4.9393,-4.9407,-4.9415,-4.9506,-4.9536,-4.9562,-4.9212,-4.921,-4.9208,0,0,-4.8514,-4.8561,-4.8686,-4.8735,-4.8809,-4.8823,-4.8854,-4.8919,-4.8938,-4.9081,-4.9045,-4.9134,-4.9299,-4.9351,-4.9399,-4.962,-4.9587,-4.965,-4.9762,-4.9855,-4.988,-4.9902,-4.9979,-5.0007,-4.9667,-4.9668,-4.9668,0,-4.8607,-4.8757,-4.8754,-4.8868,-4.8922,-4.888,-4.9007,-4.9055,-4.9155,-4.9193,-4.9145,-4.9349,-4.9395,-4.9571,-4.9624,-4.9666,-4.9699,-4.964,-4.9877,-4.9899,-4.9919,-4.9992,-5.0022,-4.9675,-4.9674,-4.9673,-4.9673,0,-4.8867,-4.8972,-4.9064,-4.916,-4.9225,-4.9345,-4.936,-4.9426,-4.9415,-4.9435,-4.9581,-4.9635,-4.9735,-4.9777,-4.9767,-4.9951,-4.9922,-4.9876,-4.9788,-4.9956,-5.0025,-5.0053,-4.9685,-4.9682,-4.968,-4.9678,0,0,-4.9125,-4.9218,-4.9251,-4.9294,-4.9372,-4.9453,-4.9571,-4.9667,-4.9723,-4.9794,-4.9892,-5.0032,-4.9989,-5.0044,-5.004,-5.0123,-5.0292,-5.0066,-5.0067,-5.0104,-5.0495,-5.0528,-5.056,-5.0271,-5.0277,-5.0281,-5.0488,0,-4.933,-4.9535,-4.9535,-4.9725,-4.9821,-4.9783,-4.9886,-4.9945,-4.9967,-5.0052,-5.0077,-5.0175,-5.0112,-5.0145,-5.0225,-5.0254,-5.037,-5.024,-5.0362,-5.0366,-5.0342,-5.0597,-5.0631,-5.0824,-5.0515,-5.052,-5.0523,0,-4.9595,-4.9672,-4.9871,-4.9934,-4.9974,-5.0066,-5.0154,-5.0237,-5.0303,-5.0313,-5.0375,-5.0358,-5.0478,-5.0389,-5.0554,-5.0465,-5.0516,-5.0538,-5.0545,-5.0554,-5.0453,-5.061,-5.0886,-5.0914,-5.0566,-5.0563,-5.056,0,-4.976,-4.9915,-5.0053,-5.0091,-5.0169,-5.0234,-5.027,-5.033,-5.0388,-5.0465,-5.0502,-5.0594,-5.0643,-5.0714,-5.0723,-5.0657,-5.0888,-5.08,-5.0899,-5.0899,-5.0947,-5.0943,-5.1232,-5.0985,-5.0984,-5.0983,-5.0983,0,-4.9987,-5.0109,-5.0128,-5.0213,-5.0349,-5.035,-5.0484,-5.0514,-5.0569,-5.0659,-5.0633,-5.0718,-5.0726,-5.0814,-5.0822,-5.0956,-5.098,-5.0991,-5.0991,-5.0991,-5.0989,-5.1022,-5.1008,-5.0991,-5.0989,-5.0988,-5.0987,0,-5.0193,-5.0212,-5.0359,-5.0421,-5.0439,-5.0536,-5.0589,-5.067,-5.069,-5.0804,-5.0831,-5.0862,-5.0964,-5.098,-5.1101,-5.1106,-5.1266,-5.1254,-5.1243,-5.124,-5.1337,-5.1327,-5.1655,-5.1697,-5.1425,-5.1428,-5.143,0,-5.0335,-5.0428,-5.0499,-5.0557,-5.0595,-5.069,-5.0748,-5.0753,-5.0814,-5.0897,-5.0968,-5.1067,-5.1146,-5.1311,-5.1345,-5.1436,-5.1424,-5.1533,-5.1438,-5.1435,-5.1423,-5.1416,-5.1424,-5.1551,-5.1554,-5.1556,-5.1558,0,-5.0584,-5.0588,-5.0672,-5.0761,-5.0831,-5.0901,-5.0967,-5.1016,-5.1029,-5.11,-5.1203,-5.1265,-5.1387,-5.1485,-5.1576,-5.1613,-5.1588,-5.1588,-5.1615,-5.1615,-5.1603,-5.1608,-5.129,-5.158,-5.1578,-5.1576,-5.1575,-5.1574,-5.076,-5.084,-5.0902,-5.0997,-5.1047,-5.111,-5.1188,-5.1218,-5.1304,-5.1402,-5.1401,-5.1514,-5.1578,-5.1697,-5.174,-5.1829,-5.1793,-5.1834,-5.1843,-5.1852,-5.186,-5.1592,-5.1846,-5.1845,-5.1845,-5.1844,-5.1844,0,-5.1004,-5.1042,-5.113,-5.1222,-5.1297,-5.1268,-5.1339,-5.1403,-5.1503,-5.1564,-5.1643,-5.1761,-5.1856,-5.1898,-5.1991,-5.2054,-5.2045,-5.2078,-5.2072,-5.208,-5.1888,-5.1853,-5.2084,-5.2084,-5.2084,-5.2084,-5.2084,-5.2084,-5.114,-5.1273,-5.1285,-5.1443,-5.1481,-5.159,-5.1633,-5.169,-5.1739,-5.1872,-5.1951,-5.1977,-5.2031,-5.2128,-5.2214,-5.2224,-5.2258,-5.2296,-5.2301,-5.2119,-5.2094,-5.2071,-5.2038,-5.2305,-5.2305,-5.2486,-5.2487,-5.2489]},{"header":{"parameterUnit":"m.s-1","parameterCategory":1,"la1":30.2991,"la2":30.254,"lo1":-89.0895,"lo2":-89.0444,"dy":0.0017,"dx":0.0017,"nx":28,"ny":28,"refTime":"2025-01-12T09:00:00:Z","depth":0,"parameterNumber":3,"parameterNumberName":"V-component_of_WINDS"},"data":[0,0,0,0,0,0,0,0,0,0,0,0,0,0,0,0,0,0,0,0,0,0,0,0,0,0,0,0,0,0,0,0,0,0,0,0,0,0,0,0,0,0,0,0,0,0,0,0,0,0,0,0,0,0,0,0,0,0,-1.0923,-1.0923,0,-1.0923,-1.0923,-1.0923,-1.0941,-1.0942,-1.0942,-1.0943,-1.094,-1.094,-1.0939,0,0,0,0,0,0,0,0,0,0,0,0,0,-1.093,-1.093,-1.0923,-1.0923,-1.0923,-1.0923,-1.0923,-1.0923,-1.0941,-1.0942,-1.0942,-1.0943,-1.094,-1.094,-1.0939,0,0,0,0,0,0,0,0,0,0,0,0,0,-1.0929,-1.093,-1.0923,-1.0932,-1.0933,-1.0923,-1.0923,-1.0923,-1.0941,-1.0942,-1.0942,-1.0943,-1.0941,-1.094,-1.0939,-1.092,0,0,-1.0937,-1.0936,0,0,0,0,0,0,0,0,-1.0929,-1.0928,-1.093,-1.0931,-1.0932,-1.0933,-1.0925,-1.0922,-1.0941,-1.0938,-1.0943,-1.0943,-1.0937,-1.0937,-1.0935,-1.092,-1.092,-1.0937,-1.0936,-1.0936,-1.0936,0,0,0,0,0,0,0,-1.0929,-1.0928,-1.0923,-1.093,-1.0931,-1.0934,-1.0934,-1.0925,-1.0933,-1.0938,-1.0939,-1.0939,-1.0938,-1.0936,-1.0935,-1.092,-1.0937,-1.0936,-1.0936,-1.0935,-1.0884,-1.0884,0,0,0,0,0,0,-1.0928,-1.0928,-1.0923,-1.0923,-1.0932,-1.0933,-1.0934,-1.0932,-1.0934,-1.0935,-1.0939,-1.094,-1.0937,-1.0936,-1.0935,-1.091,-1.0936,-1.0935,-1.0935,-1.0885,-1.0884,-1.0883,0,0,0,0,0,0,-1.0929,-1.0928,-1.0923,-1.0926,-1.0926,-1.0932,-1.093,-1.0932,-1.093,-1.0934,-1.0935,-1.0936,-1.0937,-1.0936,-1.0923,-1.091,-1.0935,-1.0934,-1.0886,-1.0885,-1.0884,-1.0861,0,0,0,0,0,0,-1.0929,-1.0928,-1.0922,-1.0926,-1.0925,-1.0913,-1.0929,-1.0931,-1.0929,-1.0931,-1.0932,-1.0932,-1.0938,-1.0924,-1.0922,-1.091,-1.0934,-1.0888,-1.0886,-1.0884,-1.0863,-1.0859,-1.0856,0,0,0,0,0,-1.0929,-1.0917,-1.0922,-1.0921,-1.0919,-1.0912,-1.0911,-1.0919,-1.0928,-1.0921,-1.0923,-1.0932,-1.0912,-1.0923,-1.0921,-1.0908,-1.0888,-1.0886,-1.0884,-1.0865,-1.086,-1.0856,0,0,0,0,0,0,-1.0912,-1.0917,-1.0924,-1.0912,-1.0911,-1.0915,-1.0907,-1.0914,-1.091,-1.0912,-1.092,-1.092,-1.0904,-1.0905,-1.0917,-1.0887,-1.0901,-1.0899,-1.0887,-1.0883,-1.0879,-1.0879,-1.0933,0,0,0,0,0,-1.0906,-1.0902,-1.0906,-1.0896,-1.0895,-1.0901,-1.0898,-1.0904,-1.0903,-1.0902,-1.0903,-1.0901,-1.0893,-1.0888,-1.0882,-1.0863,-1.0861,-1.0853,-1.085,-1.0847,-1.0844,-1.0829,-1.0824,-1.0877,-1.0877,-1.0877,0,0,-1.0896,-1.0898,-1.0895,-1.0892,-1.0892,-1.0884,-1.0901,-1.0893,-1.0886,-1.0901,-1.0888,-1.0888,-1.0885,-1.0868,-1.086,-1.0868,-1.0829,-1.0844,-1.0842,-1.0841,-1.0827,-1.0822,-1.0817,-1.0875,-1.0876,-1.0876,0,0,-1.0872,-1.0875,-1.0865,-1.0864,-1.0863,-1.0866,-1.0864,-1.0865,-1.0866,-1.0853,-1.0862,-1.0853,-1.0842,-1.0838,-1.0835,-1.0805,-1.0811,-1.0802,-1.0783,-1.0769,-1.0765,-1.0761,-1.0747,-1.0742,-1.08,-1.08,-1.08,0,-1.0859,-1.085,-1.0858,-1.0849,-1.0845,-1.0858,-1.0845,-1.0843,-1.084,-1.0837,-1.0845,-1.0827,-1.0827,-1.0807,-1.0799,-1.0797,-1.0791,-1.0802,-1.0765,-1.0761,-1.0758,-1.0744,-1.0739,-1.0799,-1.0799,-1.0799,-1.0799,0,-1.0831,-1.0824,-1.0815,-1.0812,-1.0807,-1.0797,-1.0801,-1.0795,-1.08,-1.0801,-1.0785,-1.0784,-1.0776,-1.0772,-1.0777,-1.0751,-1.0755,-1.0764,-1.0778,-1.0751,-1.0738,-1.0734,-1.0797,-1.0797,-1.0798,-1.0798,0,0,-1.0799,-1.0797,-1.0794,-1.079,-1.0789,-1.0782,-1.077,-1.0762,-1.0755,-1.0751,-1.0739,-1.0726,-1.0734,-1.073,-1.0734,-1.0721,-1.0692,-1.0732,-1.0731,-1.0721,-1.0658,-1.0649,-1.0643,-1.0697,-1.0696,-1.0695,-1.0657,0,-1.0774,-1.0754,-1.076,-1.0739,-1.073,-1.0739,-1.0727,-1.0723,-1.0723,-1.0714,-1.0713,-1.0703,-1.0715,-1.0712,-1.07,-1.0699,-1.0679,-1.0702,-1.0682,-1.0681,-1.068,-1.0637,-1.0629,-1.0593,-1.0653,-1.0652,-1.0651,0,-1.0743,-1.0737,-1.0715,-1.0711,-1.0707,-1.0697,-1.0687,-1.0679,-1.0673,-1.0673,-1.0667,-1.0672,-1.0656,-1.0671,-1.0647,-1.0662,-1.0654,-1.0651,-1.065,-1.0646,-1.0663,-1.063,-1.0583,-1.0576,-1.0644,-1.0645,-1.0645,0,-1.0718,-1.0704,-1.0688,-1.0685,-1.0681,-1.0672,-1.067,-1.0664,-1.0658,-1.0649,-1.0643,-1.0633,-1.0626,-1.0616,-1.0616,-1.0628,-1.059,-1.0607,-1.0587,-1.0586,-1.0578,-1.0578,-1.0525,-1.0577,-1.0577,-1.0577,-1.0577,0,-1.0688,-1.0674,-1.0676,-1.0667,-1.0649,-1.0653,-1.0635,-1.0633,-1.0627,-1.0614,-1.0622,-1.0609,-1.0612,-1.0598,-1.0598,-1.0575,-1.0573,-1.0571,-1.057,-1.0569,-1.0568,-1.0562,-1.0564,-1.0575,-1.0576,-1.0576,-1.0576,0,-1.0658,-1.0659,-1.0642,-1.0637,-1.0636,-1.0622,-1.0617,-1.0606,-1.0605,-1.0589,-1.0585,-1.0583,-1.0567,-1.0566,-1.0548,-1.0548,-1.0519,-1.0523,-1.0521,-1.0521,-1.05,-1.05,-1.0439,-1.0429,-1.049,-1.0489,-1.0489,0,-1.0638,-1.0627,-1.062,-1.0612,-1.0609,-1.0597,-1.0589,-1.0591,-1.0582,-1.0571,-1.056,-1.0545,-1.0532,-1.0505,-1.0501,-1.0485,-1.0487,-1.0466,-1.0485,-1.0481,-1.0482,-1.0482,-1.0478,-1.0462,-1.0462,-1.0461,-1.0461,0,-1.0602,-1.0602,-1.0592,-1.058,-1.057,-1.0561,-1.0552,-1.0545,-1.0546,-1.0535,-1.0518,-1.0508,-1.0488,-1.047,-1.0455,-1.0449,-1.0453,-1.0455,-1.0449,-1.0446,-1.0444,-1.0441,-1.0508,-1.0456,-1.0457,-1.0457,-1.0457,-1.0458,-1.0574,-1.0563,-1.0555,-1.0542,-1.0535,-1.0525,-1.0513,-1.0509,-1.0496,-1.048,-1.0481,-1.0461,-1.045,-1.0429,-1.0422,-1.0404,-1.0411,-1.0403,-1.04,-1.0398,-1.0393,-1.0448,-1.0401,-1.0401,-1.0402,-1.0402,-1.0402,0,-1.0536,-1.053,-1.0518,-1.0505,-1.0492,-1.0498,-1.0487,-1.0476,-1.0459,-1.0449,-1.0435,-1.0413,-1.0395,-1.0387,-1.0369,-1.0355,-1.0356,-1.035,-1.035,-1.0347,-1.0391,-1.0396,-1.0349,-1.0349,-1.0349,-1.0349,-1.0349,-1.0349,-1.0515,-1.0494,-1.0492,-1.0466,-1.046,-1.0441,-1.0434,-1.0423,-1.0414,-1.0389,-1.0374,-1.037,-1.0358,-1.0338,-1.032,-1.0318,-1.0309,-1.0301,-1.0299,-1.034,-1.0345,-1.035,-1.0355,-1.03,-1.03,-1.0257,-1.0257,-1.0256]}]]